Regional Weather Roundup
Issued by NWS

Home | Current Version | Previous Version | Graphics & Text | Print | Product List | Glossary On
Versions: 1 2 3 4 5 6 7 8 9 10 11 12 13 14 15 16 17 18 19 20 21 22 23 24 25 26 27 28 29 30 31 32 33 34 35 36 37 38 39 40 41 42 43 44 45 46 47 48 49 50
000
ASUS43 KMPX 292310
RWRMN
WEATHER ROUNDUP FOR MINNESOTA
NATIONAL WEATHER SERVICE TWIN CITIES/CHANHASSEN MN
600 PM CDT MON AUG 29 2016


NOTE: "FAIR" INDICATES FEW OR NO CLOUDS BELOW 12,000 FEET WITH NO
SIGNIFICANT WEATHER AND/OR OBSTRUCTIONS TO VISIBILITY. N/A MEANS
CURRENT SKY AND/OR WEATHER CONDITIONS ARE NOT AVAILABLE.

MNZ060>063-068>070-300000-
   Twin Cities Metro

CITY           SKY/WX    TMP DP  RH WIND       PRES   REMARKS
TWIN CITIES    PTSUNNY   86  70  58 W9        30.12F HX  90
ST PAUL        MOSUNNY   84  71  65 SW8       30.12F
CRYSTAL        MOSUNNY   84  70  62 SW8       30.11F
BLAINE         PTSUNNY   86  72  62 SW7G14    30.12F HX  92
LAKEVILLE      MOSUNNY   81  70  69 S8        30.14S
EDEN PRAIRIE   MOSUNNY   85  72  65 SW10      30.12S HX  91
LAKEVILLE      MOSUNNY   81  70  69 S8        30.14S
SOUTH ST PAUL  SUNNY     85  70  60 SW9       30.12F
LAKE ELMO      FAIR      82  72  69 SW6       30.14F
$$
MNZ001>005-007-008-013>017-022>024-027-028-300000-
   Northwest Minnesota

CITY           SKY/WX    TMP DP  RH WIND       PRES   REMARKS
BEMIDJI        SUNNY     76  64  67 NW10      30.15S
HALLOCK        SUNNY     75  52  43 NW12      30.16S
ROSEAU         SUNNY     75  61  60 NW9       30.15R
WARROAD        SUNNY     75  61  60 W9        30.14S
THIEF RVR FALL SUNNY     75  57  53 N14       30.17S
CROOKSTON      SUNNY     79  61  53 N10       30.16S
FOSSTON        SUNNY     77  61  57 NW9       30.17S
DETROIT LAKES  MOSUNNY   75  68  78 N9        30.18S
MOORHEAD       SUNNY     81  64  57 N10       30.16S
PARK RAPIDS    MOSUNNY   79  69  71 NW15      30.14S
MAHNOMEN       FAIR      76  65  68 NW9       30.16S
$$
MNZ006-009>011-018-025>026-300000-
   North Central Minnesota

CITY           SKY/WX    TMP DP  RH WIND       PRES   REMARKS
BAUDETTE       MOSUNNY   75  60  59 NW10      30.12R
FLAG ISLAND    SUNNY     73  57  56 NW6       30.12R
INTL FALLS     SUNNY     77  65  66 NW8       30.10S
WASKISH        SUNNY     75  66  73 W6        30.13R
BIG FORK       MOSUNNY   77  66  69 W5        30.13S
LONGVILLE      SUNNY     81  70  69 N3        30.13S
GRAND RAPIDS   MOSUNNY   79  70  74 NW8       30.14F
CRANE LAKE     MOSUNNY   73  68  83 NW2       30.12S
ORR            MOSUNNY   79  64  61 CALM      30.09S
COOK           PTSUNNY   75  66  73 W9        30.12F
WALKER         MOCLDY    75  69  80 NW8       30.14S
$$
MNZ012-019>021-037-300000-
   Northeast Minnesota

CITY           SKY/WX    TMP DP  RH WIND       PRES   REMARKS
DULUTH         PTSUNNY   82  68  62 W10       30.12F
ELY            PTSUNNY   75  66  73 W6        30.12F
HIBBING        CLOUDY    76  69  79 NW3       30.12F
EVELETH        CLOUDY    78  69  73 CALM      30.14S
DULUTH HARBOR  MOSUNNY   82  72  69 SW5       30.09F
TWO HARBORS    SUNNY     81  72  74 CALM      30.10S
SILVER BAY     MOSUNNY   79  70  73 SW3       30.10S
GRAND MARAIS     N/A     68  65  90 W6        30.09F
G MARAIS ARPRT MOSUNNY   70  59  68 SW6       30.15F
$$
MNZ029>031-032-039>041-046>048-054>057-064-300000-
   West Central Minnesota

CITY           SKY/WX    TMP DP  RH WIND       PRES   REMARKS
FERGUS FALLS   SUNNY     81  70  69 N12       30.14S
WHEATON        SUNNY     86  72  62 N5        30.14R HX  92
ALEXANDRIA     MOSUNNY   84  71  65 NW7       30.15S
ELBOW LAKE     FAIR      81  71  72 N8        30.14S
WADENA         MOSUNNY   81  70  69 NW5       30.14S
GLENWOOD       SUNNY     84  72  65 SW8       30.15S
APPLETON       PTSUNNY   86  73  66 SE5       30.11S HX  93
BENSON         CLOUDY    84  72  65 SW3       30.12S
ORTONVILLE     PTSUNNY   84  72  65 CALM      30.11S
MADISON        CLOUDY    86  72  62 SW9       30.11S HX  92
WILLMAR        FAIR      84  73  70 SW3       30.14F HX  91
$$
MNZ033>034-036-042>043-049>051-058-059-300000-
   Central Minnesota

CITY           SKY/WX    TMP DP  RH WIND       PRES   REMARKS
ST CLOUD       MOSUNNY   83  74  74 SW10      30.11F
SAUK CENTRE    FAIR      82  73  72 SW5       30.13F
PAYNESVILLE    MOSUNNY   84  71  65 SW6       30.14S
AITKIN         MOSUNNY   84  66  54 SW5       30.11F
PINE RIVER     PTSUNNY   81  72  74 CALM      30.16S
BRAINERD       PTSUNNY   81  69  67 W6        30.12F
STAPLES        SUNNY     82  68  61 W6        30.13F
LONG PRAIRIE   PTSUNNY   81  72  74 W5        30.14S HAZE
LITTLE FALLS   MOSUNNY   81  70  69 NW6       30.12F
LITCHFIELD     MOSUNNY   84  73  70 SW5       30.13F HX  91
BUFFALO        MOSUNNY   83  72  67 S7        30.13F
MAPLE LAKE     MOSUNNY   83  75  76 S3        30.13F HX  91
HUTCHINSON     SUNNY     83  76  78 S3        30.14F HX  91
$$
MNZ037-044-045-052-053-300000-
   East Central Minnesota

CITY           SKY/WX    TMP DP  RH WIND       PRES   REMARKS
PRINCETON      MOSUNNY   86  72  62 SW9       30.12F THUNDER HX  92
MORA           TSTM      73  68  83 W6        30.14S
CAMBRIDGE      MOSUNNY   84  70  61 SW7       30.12S THUNDER
RUSH CITY      TSTM      83  71  66 SW5       30.12F
MOOSE LAKE     PTSUNNY   81  70  69 NW3       30.09F
HINCKLEY       MOCLDY    81  73  78 SW6       30.10F
CLOQUET        SUNNY     81  64  57 W5        30.12F
MCGREGOR       SUNNY     81  68  65 W6        30.13F
$$
MNZ071>073-080-081-089-090-097-098-300000-
   Southwest Minnesota

CITY           SKY/WX    TMP DP  RH WIND       PRES   REMARKS
MONTEVIDEO     MOSUNNY   88  75  66 SW6       30.13F HX  97
GRANITE FALLS  PTSUNNY   86  76  70 SE7       30.14S HX  96
CANBY          CLOUDY    86  72  62 SW7       30.13F HX  92
MARSHALL       PTSUNNY   85  73  67 SW7       30.13S HX  91
REDWOOD FALLS  MOSUNNY   84  71  65 SW9       30.12F
OLIVIA         PTSUNNY   82  72  69 SW6       30.13S
PIPESTONE        N/A     81  72  74 S5        30.16S
WINDOM         SUNNY     84  68  58 S6        30.15S
WORTHINGTON    MOSUNNY   80  70  71 S5        30.16F
JACKSON        MOSUNNY   82  70  65 SW7       30.16F
TRACY          CLOUDY    83  73  72 W5        30.14F
SLAYTON        PTSUNNY   81  70  69 CALM      30.16F
$$
MNZ065>067-074>077-082>085-091>093-300000-
   South Central Minnesota

CITY           SKY/WX    TMP DP  RH WIND       PRES   REMARKS
NEW ULM        MOSUNNY   82  72  69 SW7       30.13F
ST JAMES       SUNNY     82  70  65 S7        30.15S
FAIRMONT       CLOUDY    80  70  71 S8        30.15F
GLENCOE        MOSUNNY   83  77  82 S6        30.13F HX  91
FARIBAULT      SUNNY     82  70  65 S5        30.15F
OWATONNA       SUNNY     82  68  61 SW6       30.16F
WASECA         SUNNY     79  68  69 SW7       30.17F
ALBERT LEA     MOSUNNY   81  64  57 CALM      30.16F
$$
MNZ078>079-086>088-094>096-300000-
   Southeast Minnesota

CITY           SKY/WX    TMP DP  RH WIND       PRES   REMARKS
ROCHESTER      MOSUNNY   81  72  74 S5        30.18S
RED WING       SUNNY     84  70  61 SW6       30.12F
STANTON        SUNNY     84  72  65 SW8       30.13F
DODGE CENTER   SUNNY     84  72  65 SW7       30.17F
WINONA         PTSUNNY   81  70  69 SW5       30.15F
AUSTIN         PTSUNNY   79  70  73 CALM      30.17S
PRESTON        CLOUDY    77  71  80 SW3       30.18F
$$
ABBREVIATIONS USED IN REMARKS
   TC - TEMPERATURES IN CELSIUS
  WCI - WIND CHILL INDEX
   HX - HEAT INDEX
  VSB - VISIBILITY
$$




USA.gov is the U.S. government's official web portal to all federal, state and local government web resources and services.